Live Position
Loading 3D Globe...
About Orbcomm G2
Group: 3 satellites
Description loading...
Upcoming Passes
Passes for default location (London). Set your location on the main map for personalized predictions.
Altitude History
Loading altitude history...
No altitude history available
Two-Line Element Set
1 25159U 98007C 26104.57021812 .00000553 00000-0 23575-3 0 9993
2 25159 107.9607 38.5122 0038780 76.7679 283.7783 14.35611046467469
Epoch: Apr 14, 2026 •
Age: 9 hours
Current Status
Altitude 770.7 km
Velocity 7.47 km/s
Sub-Earth Point 21.99°N,
42.09°E
Launch Date Feb 10, 1998
Age 28.1 years
Type other
Technical Details
Classification Payload
Mass 42.00 kg
Dry Mass 42.00 kg
Total Mass 42.00 kg
Length 0.20 m
Diameter 1.00 m
Span 4.30 m
Shape Cyl + 2 Pan + Ant
Manufacturer OSCG
Bus Type Microstar
Phase Status In Orbit
Owner/State ORBC/US
Most Searched
Loading...